Hourly Data Report for October 06, 2017

All times are specified in Local Standard Time (LST). Add 1 hour to adjust for Daylight Saving Time where and when it is observed.

HAMILTON A
ONTARIO

43°10'25.000" N
79°56'06.000" W
237.70 m
6153193
71263
YHM

Download Data

Hourly Data (October 2017)
Hourly Data Report for October 6, 2017
Temp Definition
°C
Dew Point Temp Definition
°C
Rel Hum Definition
%
Wind Dir Definition
10's deg

Wind Spd Definition
km/h
Visibility Definition
km
Stn Press Definition
kPa
Hmdx Definition


Wind Chill Definition


Weather Definition


TIME
00:00 Legend Double Dagger 14.4 12.6 89 24 8 24.1 99.02     LegendNANA
01:00 Legend Double Dagger 14.2 12.9 92 22 8 24.1 99.06     Rain Showers
02:00 Legend Double Dagger 14.4 13.2 92 22 8 24.1 99.02     Rain Showers
03:00 Legend Double Dagger 14.3 13.4 94 28 5 24.1 98.99     Rain Showers
04:00 Legend Double Dagger 14.6 12.8 89 29 3 24.1 99.02     Cloudy
05:00 Legend Double Dagger 13.8 12.7 93 24 7 24.1 99.04     Rain Showers
06:00 Legend Double Dagger 13.4 12.9 96 23 5 24.1 99.02     LegendNANA
07:00 Legend Double Dagger 13.4 13.0 97 23 7 24.1 99.06     Mostly Cloudy
08:00 Legend Double Dagger 14.2 13.0 92 31 5 24.1 99.08     LegendNANA
09:00 Legend Double Dagger 14.8 13.2 90 22 7 24.1 99.08     LegendNANA
10:00 Legend Double Dagger 15.7 12.3 80 29 5 24.1 99.08     Mostly Cloudy
11:00 Legend Double Dagger 16.4 12.0 75 26 5 24.1 99.07     LegendNANA
12:00 Legend Double Dagger 17.9 12.5 71 27 5 24.1 99.04     LegendNANA
13:00 Legend Double Dagger 18.9 13.0 68 21 10 24.1 98.97     Mostly Cloudy
14:00 Legend Double Dagger 19.3 13.7 69 20 9 24.1 98.91     LegendNANA
15:00 Legend Double Dagger 20.5 13.8 65 23 9 24.1 98.85     LegendNANA
16:00 Legend Double Dagger 19.9 14.1 69 20 5 24.1 98.83     Cloudy
17:00 Legend Double Dagger 18.9 15.2 79 7 5 24.1 98.82     LegendNANA
18:00 Legend Double Dagger 17.1 15.5 90 17 7 24.1 98.82     LegendNANA
19:00 Legend Double Dagger 16.6 15.4 93 15 6 9.7 98.82     Fog
20:00 Legend Double Dagger 16.5 15.6 95 17 5 9.7 98.85     Rain
21:00 Legend Double Dagger 16.3 15.9 98 10 5 3.2 98.82     Rain,Fog
22:00 Legend Double Dagger 16.7 16.4 98 12 5 2.4 98.83     Rain,Fog
23:00 Legend Double Dagger 16.8 16.6 99 11 7 2.0 98.75     Drizzle,Fog

Notes on Data Quality.

Legend

  • E = Estimated
  • M = Missing
  • NA = Not Available
  • ‡ = Partner data that is not subject to review by the National Climate Archives
Date modified: